Location: Fiume Ufita
(41.1500°N, 14.9333°E)
Time: 15:20:44
(UTC+00:00)

Daily predictions for brighter satellites

Satellite Brightness Start Highest point End
(mag) Time Altitude Azimuth Time Altitude Azimuth Time Altitude Azimuth
Okean-O 2.9 18:44:02 10° S 18:48:26 74° WSW 18:52:52 10° NNW
ATLAS 2AS CENTAUR R/B 3.7 18:45:05 10° SSE 18:51:31 29° ESE 18:57:51 10° NE
Cosmos 2369 4.4 18:49:32 10° SSE 18:54:31 33° ESE 18:59:32 10° NE
NOSS 3-4 (A) 3.3 18:50:27 10° SSW 18:56:06 86° SE 19:02:10 10° NE
NOSS 3-4 (C) 3.3 18:50:29 10° SSW 18:56:10 85° ESE 19:02:14 10° NE
Cosmos 1570 Rocket 4.1 18:51:38 10° NNW 18:56:54 83° WSW 19:02:09 10° SSE
Cosmos 1544 3.4 18:55:22 10° NNW 18:58:52 66° W 19:02:20 10° S
Cosmos 1486 Rocket 4.1 18:57:24 10° S 19:02:34 57° ESE 19:07:44 10° NNE
ISS -1.1 19:01:29 10° NNW 19:03:36 16° N 19:05:44 10° NE
Cosmos 1697 Rocket 2.7 18:58:05 10° SSW 19:03:43 71° ESE 19:09:22 10° NNE
Cosmos 1536 3.6 19:03:06 10° N 19:06:48 34° ENE 19:10:28 10° SE
Spot 2 4.5 19:02:49 10° S 19:06:49 58° WSW 19:10:48 10° NNW
Cosmos 2360 4.2 19:03:34 10° SSW 19:09:12 74° ESE 19:14:54 10° NNE
RESURS DK-1 3.9 19:07:16 10° SSE 19:10:03 18° ESE 19:12:51 10° ENE
H-2A R/B 1.9 19:07:11 10° NNE 19:11:18 81° ESE 19:15:24 10° SSW
SL-4 R/B 2.5 19:08:06 10° NW 19:12:42 64° NNE 19:16:42 12° ESE
Cosmos 2297 Rocket 2.6 19:09:42 10° NNW 19:15:18 65° WSW 19:20:52 10° S
Cosmos 1328 Rocket 3.7 19:11:25 10° S 19:15:42 79° W 19:20:03 10° N
ASTRO E2 4.4 19:13:41 10° SW 19:16:20 17° S 19:18:32 12° SSE
MetOp-A 4.2 19:12:38 10° S 19:16:35 50° W 19:20:21 10° NNW
CENTAUR R/B 4.3 19:19:39 10° NW 19:27:28 41° WSW 19:35:42 10° S
Cosmos 1184 Rocket 2.7 19:26:47 10° S 19:29:42 53° E 19:32:40 10° NNE
Cosmos 1503 Rocket 4.0 19:26:40 10° S 19:31:50 61° ESE 19:37:05 10° NNE
SL-16 R/B 3.8 19:31:42 14° ESE 19:33:04 15° E 19:36:07 10° ENE
ERS-1 Rocket 4.4 19:32:33 13° ESE 19:35:39 23° ENE 19:39:32 10° NNE
Cosmos 405 3.6 19:36:02 10° NNW 19:39:22 50° W 19:42:40 10° S
Cosmos 389 Rocket 2.4 19:36:40 10° N 19:40:10 68° E 19:42:29 20° SSE
Cosmos 1933 Rocket 3.6 19:38:15 10° N 19:42:42 68° E 19:46:00 18° SSE
Cosmos 1515 4.0 19:39:20 10° SSW 19:43:04 66° W 19:46:50 10° N
EXPRESS MD2 3.6 19:38:05 10° WNW 19:44:04 72° NNE 19:46:11 22° ESE
SPOT 1/Viking Rocket 3.5 19:39:39 13° SSE 19:44:19 87° ENE 19:49:30 10° NNW
Helios 1A Rocket 3.9 19:42:53 20° ESE 19:44:53 30° ENE 19:48:25 10° N
Meteor 1-27 Rocket 4.0 19:39:57 10° SSW 19:45:41 78° W 19:51:36 10° N
CZ-4B R/B 2.2 19:43:17 10° N 19:46:23 47° WNW 19:49:23 10° SSW
Cosmos 2034 Rocket 4.0 19:44:17 10° S 19:50:29 66° E 19:56:46 10° NNE
SJ 16-02 1.3 19:48:23 10° S 19:52:40 60° ESE 19:56:59 10° NNE
Cosmos 2278 3.8 19:47:38 10° S 19:53:06 54° ESE 19:58:38 10° NNE
Cosmos 1340 3.3 19:49:48 10° SSW 19:53:28 55° WNW 19:57:09 10° N
Cosmos 2219 3.8 19:48:59 10° NNW 19:54:26 52° WSW 19:59:14 13° S
Cosmos 2292 Rocket 4.5 19:52:54 10° NNE 19:54:58 17° ENE 19:55:06 17° E
NOSS 2-1 (C) 4.3 19:59:39 22° E 19:59:39 22° E 20:01:22 10° ENE
Cosmos 2082 3.7 19:55:42 10° NNW 20:01:22 89° WSW 20:04:59 23° SSE
Ariane Rocket 3.3 20:00:04 15° S 20:04:12 65° WSW 20:09:17 10° NNW
Cosmos 2263 Rocket 2.6 19:59:05 10° NNW 20:04:29 48° ENE 20:07:29 25° ESE
Cosmos 1743 3.5 20:03:53 10° NNW 20:07:31 46° W 20:10:11 17° SSW
NOSS 2-1 (D) 3.8 20:09:53 29° E 20:09:53 29° E 20:12:00 10° NE
OAO 3 Rocket 4.1 20:04:42 10° WSW 20:09:05 32° SSW 20:10:30 27° SSE
SPOT 5 3.3 20:06:30 26° SE 20:09:18 53° ENE 20:14:19 10° N
Terra 2.7 20:09:04 25° ESE 20:10:59 36° ENE 20:15:19 10° N
Resurs 01 Rocket 3.0 20:09:13 11° SSW 20:13:06 35° W 20:17:09 10° NNW
Cosmos 1346 Rocket 3.6 20:14:59 31° ESE 20:15:23 32° E 20:18:58 10° NNE
USA 215 4.4 20:12:16 10° ENE 20:16:25 22° ESE 20:16:25 22° ESE
Cosmos 2227 Rocket 3.9 20:17:31 10° NW 20:22:11 27° WSW 20:26:49 10° SSW
Cosmos 921 Rocket 3.5 20:19:01 10° NNW 20:23:28 59° WSW 20:25:37 28° S
CARTOSAT-1 4.2 20:26:14 25° SSW 20:28:31 52° W 20:32:44 10° NNW
Cosmos 1980 Rocket 3.2 20:23:23 10° SW 20:28:47 48° WNW 20:34:16 10° NNE
Cosmos 783 Rocket 4.5 20:24:02 10° NNW 20:29:15 82° WSW 20:31:34 34° S
Cosmos 2228 Rocket 3.3 20:29:01 24° SSW 20:31:45 74° W 20:36:19 10° N
Cosmos 1869 Rocket 3.7 20:28:15 10° NNW 20:32:43 73° W 20:34:33 35° S
SL-24 R/B - RUBIN 2 4.3 20:28:59 10° NNW 20:33:12 43° NE 20:34:41 32° E
Cosmos 1378 3.0 20:34:31 51° SSW 20:35:22 85° W 20:39:02 10° N
Cosmos 2322 Rocket 2.7 20:36:17 35° SE 20:37:12 38° ESE 20:42:20 10° NE
Cosmos 2344 4.3 20:30:15 10° WSW 20:37:34 52° NW 20:45:02 10° NNE
Cosmos 1777 Rocket 4.3 20:32:38 10° SSW 20:37:49 68° WNW 20:43:03 10° NNE
Spot 2 Rocket 3.5 20:35:42 35° S 20:37:53 81° WSW 20:42:57 10° NNW
SPOT 3 Rocket 4.2 20:36:10 23° SSW 20:39:07 49° W 20:44:07 10° NNW
ISS -3.0 20:37:47 10° NW 20:41:02 43° NNE 20:41:27 41° NE
ATLAS 2AS CENTAUR R/B 3.3 20:34:15 10° SW 20:42:01 67° NW 20:49:35 10° NNE
Cosmos 2333 Rocket 4.1 20:43:20 13° E 20:43:20 13° E 20:44:59 10° ENE
Cosmos 773 Rocket 4.3 20:38:05 10° NNW 20:43:14 61° WSW 20:45:19 34° S
Meteor 2-4 Rocket 3.7 20:40:21 29° S 20:43:28 85° E 20:49:10 10° N
Cosmos 1844 Rocket 4.3 20:39:28 10° N 20:43:51 23° NE 20:46:18 17° E
RESURS DK-1 3.8 20:43:54 10° SW 20:47:44 37° WNW 20:51:36 10° N
Cosmos 1092 Rocket 4.0 20:42:59 10° N 20:49:10 79° W 20:52:05 33° S
SL-4 R/B 3.7 20:48:24 10° WNW 20:51:53 23° SW 20:52:09 23° SW
Cosmos 1634 Rocket 3.9 20:49:59 29° S 20:53:26 85° W 20:59:40 10° N
ARIANE 5 R/B 2.5 20:53:39 58° SSE 20:54:28 80° ENE 20:59:00 10° N
Cosmos 1707 Rocket 3.6 20:54:13 46° SSW 20:55:28 77° W 20:59:54 10° N
ATLAS CENTAUR R/B 4.0 20:56:11 10° N 20:59:11 16° NE 21:01:50 11° ENE
Cosmos 44 Rocket 3.1 20:55:59 10° NNW 21:00:43 89° ENE 21:01:28 63° SE
Cosmos 2219 Rocket 4.1 21:03:07 14° E 21:03:07 14° E 21:04:55 10° ENE
Meteor 2-15 Rocket 4.3 21:00:05 42° SSE 21:02:10 72° E 21:08:13 10° NNE
Cosmos 2227 4.2 21:00:35 10° NNW 21:06:23 82° WSW 21:07:59 50° SSE
Cosmos 1733 4.2 21:03:32 10° N 21:06:32 36° NE 21:06:32 36° NE
Cosmos 158 Rocket 4.2 21:03:00 10° NNW 21:08:06 64° WSW 21:09:24 47° SSW
NOSS 2-1 (E) 3.7 21:08:10 47° WNW 21:08:19 47° NW 21:11:26 10° NNE
ATLAS 3B R/B 3.0 21:02:45 10° NNW 21:10:10 71° NE 21:13:25 37° SE
USA 81 4.3 21:09:00 37° SSW 21:11:01 64° W 21:16:17 10° N
CSL-04 DEB 4.3 21:08:34 10° N 21:12:33 77° WNW 21:12:49 72° WSW
Cosmos 1975 3.6 21:09:11 10° NNW 21:13:01 42° W 21:13:33 40° WSW
ERS-1 Rocket 3.8 21:12:32 33° SW 21:14:09 43° W 21:18:56 10° NNW
Cosmos 2026 Rocket 4.3 21:08:18 10° NNW 21:14:22 59° W 21:17:00 34° SSW
SL-16 R/B 2.3 21:13:28 29° SW 21:16:26 74° WNW 21:22:08 10° NNE
Cosmos 2237 4.1 21:16:27 51° S 21:17:57 78° ESE 21:23:42 10° NNE
Meteor 1-4 Rocket 3.4 21:17:01 10° N 21:19:36 43° NNE 21:19:36 43° NNE
Cosmos 1538 Rocket 4.0 21:18:17 10° NNW 21:23:30 67° WSW 21:24:18 57° SSW
Gblst 52 Del rocket 4.3 21:16:49 10° SW 21:23:38 90° SSE 21:29:36 10° NE
Meteor 2-10 4.1 21:22:13 10° N 21:27:23 56° ENE 21:27:49 54° E
Cosmos 1733 Rocket 3.4 21:23:01 10° NNW 21:27:23 55° W 21:27:44 53° WSW
Geosat 3.8 21:28:35 68° SE 21:29:13 82° ENE 21:34:16 10° NNW
SJ 16-02 4.2 21:29:28 10° W 21:31:38 13° WNW 21:33:49 10° NNW
COSMOS 2428 4.4 21:35:55 19° E 21:35:55 19° E 21:38:54 10° NE
Cosmos 1862 Rocket 4.5 21:37:31 38° WSW 21:38:19 42° WNW 21:42:36 10° N
Cosmos 1908 Rocket 3.8 21:34:44 10° N 21:38:37 61° NE 21:38:37 61° NE
H-2A ROCKET BODY 4.5 21:00:09 10° W 21:39:27 40° SW 21:43:09 34° S
Cosmos 2360 Rocket 2.0 21:40:42 67° S 21:41:28 82° ESE 21:47:08 10° NNE
Cosmos 923 Rocket 3.9 21:36:20 10° NNW 21:41:42 77° ENE 21:42:10 71° ESE
Cosmos 1937 Rocket 3.6 21:42:39 59° E 21:42:39 59° E 21:47:37 10° NNE
Cosmos 2242 Rocket 4.2 21:43:57 48° ENE 21:43:57 48° ENE 21:47:43 10° NNE
ALOS 2 4.0 21:44:37 28° ENE 21:44:37 28° ENE 21:48:14 10° N
Meteor 1-13 Rocket 4.2 21:44:30 59° SSW 21:45:33 77° W 21:51:07 10° N
Cosmos 1726 3.4 21:42:43 10° N 21:45:09 35° NNE 21:45:09 35° NNE
Cosmos 2333 4.4 21:47:08 53° E 21:47:08 53° E 21:52:21 10° NNE
Cosmos 2263 Rocket 3.7 21:43:45 10° NW 21:48:02 23° W 21:49:11 21° WSW
Terra 3.4 21:47:56 23° WSW 21:48:47 24° W 21:52:37 10° NW
Cosmos 2266 Rocket 3.8 21:44:03 10° N 21:50:19 80° E 21:51:20 63° SSE
USA 215 3.1 21:54:06 10° NE 22:00:42 86° SE 22:03:42 36° SW
Cosmos 2112 Rocket 3.9 21:56:56 10° NNW 22:02:17 75° ENE 22:02:27 74° E
Cosmos 1842 4.5 22:03:47 37° NNE 22:03:47 37° NNE 22:06:18 10° NNE
Cosmos 1680 Rocket 3.4 21:58:00 10° NNW 22:03:20 89° ENE 22:03:26 87° SE
ADEOS Rocket 3.7 22:05:31 34° E 22:06:37 38° ENE 22:12:02 10° N
Spot 4 3.8 22:07:13 78° NE 22:07:13 78° NE 22:11:48 10° N
Meteor 1-12 Rocket 4.3 22:02:21 10° NNW 22:08:14 68° W 22:08:54 62° SW
Meteor 1-22 Rocket 4.4 22:04:16 10° N 22:10:14 69° E 22:10:54 63° ESE
Cosmos 1818 3.5 22:06:21 10° NNW 22:11:49 72° ENE 22:12:08 70° E
Cosmos 1898 Rocket 4.1 22:11:50 46° WSW 22:12:50 53° WNW 22:18:03 10° N
Cosmos 858 Rocket 4.4 22:13:37 79° W 22:13:45 80° WNW 22:19:04 10° NNE
Iridium 4 Rocket 3.5 22:09:16 10° N 22:13:44 66° WNW 22:13:44 66° WNW
Okean 1-7 3.9 22:17:25 43° WNW 22:17:25 43° WNW 22:21:20 10° N
Cosmos 2322 Rocket 3.7 22:18:02 18° WSW 22:21:15 31° WNW 22:26:14 10° N
Okean 3 4.4 22:25:02 43° NW 22:25:02 43° NW 22:28:30 10° N
Cosmos 2322 3.6 22:25:29 76° ESE 22:25:29 76° ESE 22:31:12 10° NNE
Cosmos 2333 Rocket 2.1 22:25:18 73° WSW 22:25:45 78° WNW 22:31:28 10° NNE
Cosmos 1844 Rocket 2.9 22:22:39 10° NNW 22:27:57 54° WSW 22:27:57 54° WSW
H-2A R/B 4.3 22:29:09 10° N 22:32:20 47° NNW 22:32:20 47° NNW
Cosmos 1461 4.2 22:30:18 10° NNW 22:33:55 36° NE 22:33:55 36° NE
SL-08 ROCKET BODY 4.2 22:28:28 10° N 22:34:20 73° E 22:34:42 70° ESE
USA 267 3.9 22:29:45 18° E 22:34:26 51° NNE 22:40:43 10° NW
ATLAS CENTAUR R/B 2.1 22:33:50 10° NNW 22:37:50 60° NW 22:37:50 60° NW
ASTEX 1 4.3 22:34:26 10° NNE 22:38:32 40° ENE 22:38:32 40° ENE
Cosmos 1553 Rocket 4.0 22:43:37 60° ESE 22:44:02 62° E 22:50:07 10° NNE
Cosmos 2219 Rocket 2.2 22:44:47 70° W 22:45:07 72° WNW 22:50:44 10° NNE
Cosmos 1244 Rocket 4.4 22:41:12 10° N 22:47:32 80° E 22:48:12 71° SE
Cosmos 2221 Rocket 4.4 22:51:06 48° NE 22:51:06 48° NE 22:54:26 10° NNE
Nadezhda 2 Rocket 4.3 22:44:10 10° N 22:50:21 86° E 22:50:51 76° SSE
Cosmos 1844 4.4 22:46:19 10° NW 22:51:27 42° W 22:51:27 42° W
Cosmos 1048 Rocket 4.5 22:51:54 10° N 22:56:54 49° ENE 22:57:08 49° ENE
Cosmos 1707 4.2 23:00:36 34° NNW 23:00:36 34° NNW 23:03:06 10° N
ATLAS 3B R/B 4.1 22:54:25 10° WNW 23:00:21 26° WSW 23:00:38 26° WSW
NOSS 0 Rocket 4.1 23:01:02 56° ESE 23:01:08 56° ESE 23:07:14 10° NNE
Cosmos 1125 Rocket 4.0 23:03:17 48° E 23:03:17 48° E 23:07:42 10° NNE
NOSS 3-1 (A) 4.3 22:57:00 10° NNW 23:04:35 70° NE 23:08:57 33° SE
Okean 2 4.4 23:06:39 43° N 23:06:39 43° N 23:09:33 10° N
ERS-2 4.2 23:04:47 10° N 23:06:52 24° NW 23:06:52 24° NW
CZ-4C R/B 3.0 23:03:43 10° NW 23:11:12 85° NE 23:14:18 44° SE
NOSS 3-1 (C) 4.1 23:04:11 10° NW 23:11:54 73° WSW 23:14:02 54° S
Cosmos 2237 Rocket 2.6 23:14:56 50° E 23:14:56 50° E 23:20:13 10° NE
COSMOS 2428 3.0 23:17:53 52° W 23:18:35 56° WNW 23:24:11 10° NNE
ALOS 2 4.4 23:22:00 23° WNW 23:22:00 23° WNW 23:24:29 10° NW
Cosmos 1745 Rocket 3.9 23:17:58 10° N 23:24:13 76° E 23:25:01 66° SE
PSLV R/B 4.1 23:19:57 10° N 23:23:40 58° NNW 23:23:40 58° NNW
Cosmos 2151 Rocket 4.3 23:20:35 10° NNW 23:23:57 50° NNW 23:23:57 50° NNW
Resurs 1-4 Rocket 4.1 23:21:55 10° NE 23:25:13 17° E 23:25:56 16° E
USA 305 4.0 23:26:44 41° NE 23:26:44 41° NE 23:29:35 10° NE
Cosmos 405 Rocket 4.1 23:28:20 36° N 23:28:20 36° N 23:30:40 10° N
Okean 2 Rocket 3.9 23:24:37 10° NNW 23:28:05 44° NW 23:28:05 44° NW
Cosmos 1943 Rocket 4.4 23:28:04 10° N 23:32:19 21° NE 23:36:32 10° E
Cosmos 2298 Rocket 3.9 23:34:33 81° WNW 23:34:33 81° WNW 23:39:51 10° NNE
Cosmos 1437 Rocket 4.1 23:31:13 10° N 23:33:34 36° N 23:33:34 36° N
Cosmos 1867 4.5 23:33:44 36° W 23:35:00 41° NW 23:40:11 10° NNE
Cosmos 1626 4.0 23:37:36 26° NW 23:37:36 26° NW 23:39:38 10° N
Lacrosse 5 rocket 3.9 23:39:06 12° E 23:39:06 12° E 23:39:33 10° ENE
GP-B 3.9 23:38:07 10° NNE 23:42:03 43° ENE 23:42:03 43° ENE
Thor Agena Rocket 4.1 23:38:22 10° NNE 23:43:28 46° E 23:43:43 46° ESE
Cosmos 883 Rocket 4.4 23:44:03 64° SSE 23:45:03 78° E 23:51:24 10° N
Cosmos 1953 3.3 23:41:56 10° N 23:44:46 44° NNW 23:44:46 44° NNW
Cosmos 2278 Rocket 2.0 23:42:40 10° NNW 23:48:24 90° SW 23:48:51 77° SSE
EO 1 Delta rocket 4.1 23:46:27 10° NNE 23:51:10 64° E 23:51:24 63° ESE
ADEOS Rocket 4.0 23:52:27 29° W 23:52:27 29° W 23:57:16 10° NW
